RH
2 3 3 2 2 2 2 2 2 1 1 1 1 1 1 1 1 1 1 1 1 1 1 1 2 3 3 3 3 3 3 2 2 2 1 1 2 3 1 2 5 10 20 29 38 50 61 68 73 76 75 75 76 77 76 74 74 75 71 62 62 71 65 61 70 76 70 61 64 56 40 30 20 17 15 14 25 28 21 13 11 8 6 11 12 14 16 19
2 2 3 3 3 2 2 2 1 2 1 1 1 1 1 1 1 1 1 1 1 1 0 1 1 2 3 3 4 3 3 3 2 2 1 2 2 2 2 1 3 8 16 24 31 41 51 55 64 73 71 69 71 67 68 72 76 83 82 75 75 79 71 65 65 65 68 70 69 64 52 38 26 22 19 18 24 26 21 16 13 6 3 8 9 11 16 19
1 1 2 2 3 2 2 2 2 2 1 1 2 1 2 1 1 1 1 1 1 1 0 1 1 2 3 3 4 3 3 3 2 2 1 2 2 2 2 1 2 6 11 17 29 40 43 47 58 69 66 64 63 57 66 74 75 80 85 88 85 81 73 67 66 55 61 75 66 63 59 45 39 33 25 23 20 16 12 9 6 1 1 5 6 6 9 14
2 1 1 2 2 3 3 2 2 2 2 2 1 1 1 1 2 1 1 1 1 1 1 1 1 1 2 3 3 3 3 3 2 2 1 1 1 1 1 2 1 4 7 12 28 42 42 44 53 62 60 55 50 51 63 69 73 79 82 89 85 80 73 67 71 57 62 78 60 54 58 48 44 39 26 16 15 15 10 6 4 1 1 3 5 5 5 8
2 2 2 1 1 2 2 3 3 2 2 2 2 2 1 2 2 1 1 1 1 1 1 0 1 1 1 2 2 3 3 3 3 2 2 1 1 1 1 2 1 3 6 10 27 43 44 42 45 57 54 44 43 50 58 59 72 82 80 85 81 77 73 65 72 68 67 69 52 46 45 35 32 34 27 12 12 18 12 7 6 3 2 3 5 5 5 7
2 2 2 2 1 1 2 2 2 3 2 2 2 2 1 2 1 2 1 1 1 1 1 1 1 0 1 2 2 3 3 3 3 3 2 1 1 2 1 2 1 3 6 11 27 44 49 43 43 53 49 40 42 48 52 55 68 74 71 77 77 76 73 59 59 67 67 50 39 42 34 23 19 21 24 16 13 15 8 5 4 3 2 2 5 5 6 7
2 2 2 2 2 2 1 1 2 2 3 2 2 2 2 2 1 2 1 1 1 1 1 1 1 1 0 1 2 3 3 3 3 3 3 1 2 1 1 2 1 4 6 9 26 45 52 47 48 54 44 35 41 49 55 57 63 63 62 70 73 74 68 52 46 54 55 37 29 33 27 18 10 9 16 18 17 12 5 1 2 2 2 3 5 6 8 8
2 2 2 2 2 2 2 1 1 1 2 3 2 2 2 2 2 2 1 2 1 1 1 1 1 1 0 1 2 2 2 3 3 3 3 2 2 1 1 2 1 4 4 8 28 48 52 48 51 51 38 33 45 58 62 60 62 62 60 62 63 65 57 43 39 42 37 26 22 21 18 11 4 3 6 11 12 7 4 1 2 4 4 5 7 8 8 9
2 2 2 2 2 2 2 2 2 1 1 2 2 3 2 2 2 1 2 1 1 2 1 1 1 1 1 1 1 2 2 2 3 3 3 2 2 2 2 1 2 3 4 9 23 41 45 42 47 46 35 34 47 58 59 57 59 62 61 60 61 60 46 30 28 28 21 16 15 11 6 5 4 2 -0 2 4 2 3 3 5 7 8 9 11 11 8 9
5 3 2 2 2 2 2 2 2 2 1 1 2 2 3 2 2 2 2 1 2 2 1 1 1 1 1 1 1 1 2 2 2 3 3 3 2 2 2 1 2 2 4 7 14 31 39 39 44 42 38 38 42 49 52 54 61 67 69 69 69 66 52 34 21 15 12 12 10 8 7 6 4 2 0 1 1 1 2 2 4 8 10 11 13 12 8 8
7 6 5 3 2 2 2 2 2 2 2 2 1 2 2 2 2 2 2 2 2 1 2 1 1 1 1 1 1 1 2 1 2 3 3 4 2 2 2 1 2 2 4 4 10 28 35 39 41 37 40 39 38 46 49 49 56 62 69 72 72 71 62 43 23 13 15 13 8 13 13 9 6 2 1 1 3 5 5 5 5 5 5 8 11 10 8 7
6 7 7 6 4 3 2 2 2 2 2 2 2 1 1 2 3 2 2 2 2 2 2 2 1 1 1 1 1 1 2 1 2 3 3 4 3 2 1 2 2 2 4 2 9 24 31 39 42 35 34 31 34 47 50 50 51 51 59 65 68 72 60 44 32 21 20 14 17 29 21 11 9 5 3 3 4 6 6 5 5 3 2 4 7 10 9 7
4 5 5 6 6 5 4 2 2 2 2 2 2 2 1 1 2 2 2 2 2 2 1 2 1 1 1 1 1 1 1 1 2 2 3 4 3 3 2 1 2 1 3 3 7 19 26 34 39 36 30 25 33 46 48 52 56 56 60 60 62 62 49 47 44 34 35 32 36 48 38 24 16 9 8 6 4 5 6 7 4 1 0 1 3 6 8 6
2 3 3 4 5 6 6 5 3 2 2 2 2 2 2 1 1 2 2 2 2 2 2 2 2 2 1 1 1 1 1 1 2 2 3 3 3 3 2 2 2 2 2 2 5 10 18 26 32 34 28 22 27 38 45 50 56 62 66 62 57 56 54 54 49 45 51 49 49 53 47 43 32 21 15 7 3 4 8 10 4 0 -0 0 1 2 4 5
2 2 2 2 2 3 5 6 6 3 2 2 2 2 2 2 1 1 2 2 2 2 2 2 2 2 1 1 1 1 1 1 2 2 2 3 3 3 3 2 1 2 2 2 3 4 10 16 21 27 27 20 17 30 47 53 60 69 71 67 59 62 70 62 49 48 47 44 46 43 43 48 40 29 22 11 4 4 9 11 3 0 -0 -1 0 0 1 3
2 2 2 2 2 2 2 4 6 6 4 2 1 2 2 2 2 1 1 2 3 2 2 2 2 2 2 1 1 1 1 1 1 2 2 3 3 3 3 2 1 2 2 2 2 3 5 7 16 24 23 18 15 30 52 60 67 66 64 71 66 63 70 60 50 48 40 39 41 35 37 44 41 33 30 24 14 7 9 12 8 6 5 1 -0 0 0 0
2 2 2 2 1 2 2 2 4 6 6 4 2 1 2 2 2 2 1 1 2 3 3 2 2 2 2 2 2 1 1 1 1 1 2 3 3 3 3 3 2 2 2 2 2 3 2 4 15 21 17 18 18 25 39 52 65 59 56 73 69 59 63 59 54 51 48 46 39 35 38 43 45 42 38 35 26 13 8 10 11 13 14 9 1 -1 1 1
2 2 2 2 2 1 1 2 2 4 6 6 4 2 1 2 2 2 2 1 1 2 3 3 2 2 2 2 2 1 1 1 1 1 2 3 3 3 3 3 2 2 2 2 1 3 2 3 10 14 14 16 16 16 21 40 60 56 53 64 61 57 63 64 62 63 67 59 43 44 47 46 48 43 38 38 33 22 11 6 9 13 18 16 5 0 0 1
2 2 2 2 2 2 2 1 2 4 6 6 5 4 2 1 2 2 1 1 1 1 2 3 2 2 2 2 2 2 2 1 1 2 2 3 3 3 3 3 3 2 2 2 2 2 2 3 4 7 9 9 11 13 15 34 54 54 54 58 59 62 63 64 66 67 70 63 50 49 48 50 56 50 40 37 36 32 22 12 9 9 16 19 9 1 0 1
2 2 2 2 2 2 2 1 1 3 6 6 5 4 3 1 2 2 2 2 2 1 1 2 3 2 2 2 2 2 2 1 1 2 2 2 3 3 3 3 3 3 2 2 2 2 2 3 2 3 5 5 11 16 20 36 55 64 67 66 68 68 62 62 64 64 62 55 49 48 43 44 57 61 51 42 40 40 35 27 18 8 11 21 17 4 -0 0
2 2 2 2 2 2 2 2 1 2 5 6 5 4 4 3 2 2 2 2 2 1 1 2 3 3 2 2 2 2 1 1 1 1 2 2 2 3 3 3 3 3 3 2 2 2 2 2 2 2 3 7 16 21 27 44 63 71 72 71 70 65 64 65 60 59 58 48 47 53 50 45 48 56 57 55 52 47 43 37 31 20 11 14 19 11 3 -0
2 2 2 2 2 2 2 2 2 2 3 5 6 5 4 5 3 1 2 2 2 2 1 1 2 3 3 2 2 2 2 1 1 2 1 2 2 2 3 3 3 3 3 3 1 2 2 2 2 2 3 11 21 27 34 50 64 68 73 75 68 62 68 68 59 57 54 49 56 62 56 49 45 46 53 62 63 60 54 45 40 34 21 14 15 12 6 4
2 2 2 3 2 2 2 2 2 2 3 4 5 6 6 6 4 2 1 2 3 2 1 1 1 3 3 2 2 2 2 2 1 2 1 1 2 2 3 3 3 4 3 3 2 2 2 2 3 2 5 12 21 30 38 49 55 59 70 70 61 63 71 68 61 59 55 59 70 69 57 52 53 51 53 58 60 62 62 54 45 41 37 31 27 19 11 9
2 3 2 2 2 3 3 3 3 3 4 4 3 7 9 7 5 3 1 2 3 3 2 1 1 2 3 3 3 2 2 2 1 2 1 2 2 2 3 3 3 3 3 3 2 2 2 2 3 3 5 11 23 34 38 43 44 43 51 58 62 72 73 68 68 67 68 71 72 64 55 58 61 55 54 55 51 54 59 55 48 47 45 44 45 38 21 11
2 2 2 2 2 3 3 3 4 5 6 4 4 8 11 8 6 4 2 1 3 3 2 1 1 2 4 3 2 2 2 2 1 2 1 1 2 2 2 3 3 3 3 3 2 2 2 2 4 3 3 11 25 37 37 37 39 36 42 58 73 78 71 66 68 73 74 64 57 56 56 62 59 51 56 58 48 47 52 52 48 47 48 51 58 56 36 17
2 2 2 2 2 3 4 5 5 5 7 6 6 10 11 9 7 5 4 2 2 4 2 2 2 2 3 3 3 2 2 2 1 2 2 2 2 2 2 2 3 3 3 3 3 3 2 2 3 2 3 7 18 32 36 37 41 41 48 66 75 72 65 60 60 72 77 65 60 62 60 61 55 50 57 58 51 47 46 52 52 45 46 53 59 57 46 31
2 2 2 2 3 3 4 7 5 5 10 10 8 11 12 11 9 7 6 3 2 5 4 2 2 2 3 3 3 3 2 2 2 2 2 2 2 2 2 3 3 3 3 3 3 3 3 3 3 3 2 4 8 18 31 38 37 38 52 67 69 62 57 58 59 65 71 70 67 62 58 57 53 51 58 61 59 49 45 58 64 56 53 56 58 56 50 45
2 2 2 2 3 2 5 8 5 5 13 15 12 12 13 13 11 9 7 5 5 7 8 6 4 2 3 3 3 3 3 3 2 2 2 1 2 2 2 3 3 3 3 3 3 3 3 3 3 4 2 2 4 10 29 40 34 39 58 65 64 60 54 55 56 54 57 61 59 54 53 58 57 55 62 67 58 48 54 69 71 66 65 61 62 66 59 52
2 3 2 3 2 2 5 8 6 8 14 18 16 14 15 15 14 11 9 6 5 7 11 13 8 3 3 4 4 3 3 3 2 3 3 1 2 2 2 3 3 3 3 3 3 3 4 3 4 5 3 3 2 9 31 39 33 46 63 61 59 59 54 51 51 50 53 54 53 54 56 61 65 64 67 65 50 49 66 75 72 72 71 59 54 63 64 58
2 3 2 3 3 2 5 6 7 11 17 19 18 17 18 17 16 13 10 8 6 7 12 17 14 6 4 4 4 4 3 3 3 3 3 2 1 2 2 3 3 3 3 4 4 3 4 4 4 6 5 3 2 10 28 32 37 54 58 53 55 57 53 51 49 49 51 51 51 57 62 67 71 69 66 53 38 50 69 74 74 74 71 60 52 57 61 60
3 3 3 3 2 2 5 5 7 14 20 20 20 21 21 19 18 13 10 9 7 8 17 23 20 13 8 6 5 4 4 3 3 3 3 2 1 2 2 3 3 4 3 3 4 4 5 4 5 6 5 3 7 17 24 22 34 53 50 43 48 52 52 50 49 49 49 49 50 55 63 70 71 64 59 44 32 50 71 73 74 76 72 62 53 53 50 46
3 3 3 3 3 3 4 4 8 16 22 24 25 25 23 22 18 13 12 11 6 16 36 42 33 25 18 12 7 5 6 5 3 2 3 4 3 1 2 3 3 3 3 3 4 4 5 4 5 7 5 3 6 16 22 18 22 37 42 42 46 49 50 49 48 48 49 48 50 60 66 66 63 58 56 47 35 52 75 74 75 80 74 63 54 50 38 29
4 4 3 3 3 4 4 4 7 16 25 28 28 27 26 22 17 14 14 11 9 28 53 56 52 52 43 29 21 14 10 8 5 3 3 4 4 2 1 3 3 3 4 3 4 4 4 5 5 6 6 5 2 6 15 17 19 31 39 42 46 47 47 49 47 47 49 48 50 64 66 55 51 51 51 47 42 55 73 73 77 81 71 61 56 47 38 32
4 4 3 3 4 3 4 4 6 16 28 31 29 29 26 19 16 17 14 10 16 40 60 59 59 70 65 49 42 34 21 12 8 6 3 3 4 4 2 2 3 3 4 4 4 4 4 5 5 6 5 6 5 5 13 18 18 28 38 42 44 45 45 46 46 47 48 48 50 56 55 48 47 44 43 52 58 63 67 67 74 75 64 59 59 54 50 46
5 5 4 3 4 3 4 4 7 16 27 32 30 26 21 17 19 19 12 13 32 56 69 64 57 66 70 60 53 47 35 22 14 8 6 3 2 3 3 2 2 3 4 4 4 4 5 4 5 7 6 8 11 11 21 29 25 25 35 42 42 43 44 43 45 46 45 46 47 46 46 44 40 36 41 56 66 67 67 68 69 66 61 63 65 61 55 45
6 5 5 4 4 3 3 5 9 15 25 34 31 21 17 20 24 20 10 20 50 70 73 69 63 63 69 67 59 53 45 36 25 14 8 5 2 2 3 2 2 2 3 4 4 4 5 4 6 10 11 11 15 18 23 30 34 34 33 35 38 42 44 43 44 43 42 44 41 39 45 44 40 44 50 57 62 64 67 68 67 64 61 63 64 59 54 43
8 6 6 5 4 3 4 7 11 16 26 33 26 18 20 24 27 19 11 28 61 75 71 73 73 64 63 69 66 60 53 46 36 22 10 6 3 1 3 3 3 3 3 4 5 5 4 5 7 12 16 15 16 26 28 22 29 37 31 27 33 40 43 44 45 44 41 40 37 39 48 52 52 59 62 59 61 62 61 62 63 58 53 57 59 53 52 47
9 7 6 5 4 5 5 7 11 16 25 27 20 21 24 27 30 19 14 37 68 75 71 77 84 74 68 74 72 66 60 51 42 31 17 11 5 1 2 3 2 2 3 3 5 6 5 7 9 10 19 24 22 29 36 27 23 30 33 28 27 33 38 37 38 44 46 44 45 49 55 57 58 62 63 62 63 62 61 64 63 58 56 61 57 49 48 45
10 8 7 5 6 6 4 6 11 15 20 19 18 26 30 32 35 20 14 41 66 73 77 87 94 87 79 82 78 70 65 56 49 40 28 19 12 4 3 5 5 3 3 3 5 7 7 9 12 13 21 35 36 30 32 31 23 26 37 38 30 29 34 33 31 38 47 52 57 58 57 57 58 62 64 64 63 63 65 69 69 66 66 63 53 46 45 41
11 9 7 7 6 6 5 6 10 13 16 19 23 33 37 38 38 22 14 38 59 70 85 95 95 88 82 80 75 71 70 64 57 48 36 29 23 16 10 9 11 10 6 4 4 7 10 9 12 21 28 39 41 26 19 24 22 24 38 45 43 41 39 37 37 38 43 52 58 58 57 58 58 60 63 64 65 65 68 72 71 66 61 54 49 46 44 43
12 10 8 8 7 7 6 6 9 13 18 23 29 38 43 43 41 24 14 32 52 67 88 94 87 84 83 76 72 75 80 74 65 55 45 37 32 28 21 14 14 18 14 9 5 6 9 7 12 29 37 35 34 26 21 24 22 22 32 38 43 49 46 44 46 46 46 51 55 56 59 62 60 58 58 59 62 64 68 69 65 60 56 51 48 47 47 51
12 11 9 9 8 8 8 7 10 15 19 26 32 40 46 47 44 27 13 25 45 63 86 90 80 81 85 81 78 84 89 83 70 60 53 46 38 32 26 19 19 24 20 12 7 5 7 8 12 29 34 27 29 34 33 33 29 25 28 30 36 47 51 49 50 50 48 50 54 56 56 57 57 54 52 55 63 67 67 65 61 58 54 49 48 53 57 59
13 12 9 10 10 11 10 8 11 15 22 31 36 40 45 48 47 33 14 19 37 57 80 88 83 84 86 87 87 88 92 91 76 63 58 52 44 37 32 26 28 34 29 17 10 7 11 13 14 25 32 28 35 44 43 41 37 33 35 35 37 46 51 51 53 52 49 49 53 55 52 49 47 45 44 53 65 69 64 62 60 56 52 50 54 61 61 56
13 14 11 9 10 10 8 10 16 19 24 33 36 40 46 48 50 39 17 16 31 49 73 89 89 89 90 92 91 87 92 95 81 67 65 61 50 44 43 38 36 39 35 22 13 9 14 19 18 24 37 40 44 49 48 46 43 40 44 45 41 43 47 52 54 49 45 48 53 53 50 46 46 46 46 50 59 64 63 59 54 50 51 58 62 58 49 45
13 16 15 9 7 8 9 13 18 17 22 30 32 37 43 44 50 44 20 14 26 39 64 86 90 92 97 96 91 87 91 97 88 73 71 71 58 47 47 47 43 41 33 23 18 11 12 20 21 25 39 46 47 46 45 48 48 46 49 50 43 38 41 48 48 39 36 42 46 47 48 47 48 50 51 52 54 56 54 49 47 50 56 64 64 50 39 43
13 16 16 10 7 9 14 20 21 17 20 26 27 34 39 40 49 47 23 13 23 32 53 80 91 95 98 95 90 91 93 98 96 82 73 72 65 55 53 50 48 48 39 30 27 18 13 20 24 28 35 35 38 43 44 47 51 48 49 51 46 42 42 45 44 39 39 43 41 42 51 54 50 48 51 54 52 49 47 46 49 55 59 65 63 47 43 52
12 14 16 15 11 10 17 25 24 20 23 26 28 36 41 39 48 51 28 11 19 26 36 64 90 98 95 91 90 94 95 97 98 90 80 76 72 70 70 60 51 51 46 39 36 28 20 21 27 34 32 25 33 49 51 50 52 50 48 47 44 43 44 44 45 45 47 47 42 41 49 51 47 46 50 52 51 50 50 50 53 59 62 65 60 50 52 62
14 13 16 22 19 12 17 29 28 22 25 29 32 41 44 40 47 53 33 12 15 22 24 46 81 98 94 88 87 90 94 98 98 93 88 80 72 76 83 72 56 51 50 44 41 36 27 23 29 37 33 28 41 55 54 53 55 54 50 45 42 45 45 45 48 49 48 46 42 41 44 44 45 49 52 52 53 54 53 53 57 60 61 60 55 53 58 62
17 15 16 24 27 20 21 34 36 29 29 33 36 44 46 40 45 53 38 16 14 19 22 35 64 91 97 93 90 89 92 98 98 94 89 80 71 74 82 76 60 52 50 47 45 42 34 27 30 35 37 42 53 58 55 54 56 57 55 49 45 46 46 47 50 50 47 45 42 42 43 44 47 52 55 57 58 57 56 56 57 57 57 54 52 54 58 59
20 18 18 24 32 33 30 36 40 36 37 41 40 45 46 38 44 54 42 22 15 16 20 28 51 84 100 94 88 86 86 94 98 91 84 78 70 69 76 77 66 55 50 46 45 45 39 32 28 31 40 51 56 56 56 56 57 60 62 58 53 51 51 53 55 54 51 48 44 43 44 45 46 50 55 59 59 57 56 57 58 57 57 55 53 54 55 53
24 22 23 26 35 44 44 43 43 38 41 46 42 45 47 40 46 59 47 26 18 17 18 22 43 80 97 91 87 85 82 88 94 88 80 77 71 65 69 74 66 55 51 48 46 46 42 36 32 32 43 54 56 56 57 57 60 62 63 64 62 59 57 59 62 61 57 50 46 46 47 46 47 50 54 57 56 54 53 53 55 56 55 56 56 54 53 53
31 28 27 27 36 49 53 51 48 42 42 47 45 46 49 47 54 65 54 31 19 18 18 18 38 73 91 88 86 87 84 84 87 84 77 75 73 64 63 71 65 54 54 52 46 44 43 40 37 36 42 48 52 56 58 58 62 62 60 65 68 66 62 60 62 65 62 55 51 50 49 48 50 52 54 54 53 52 50 49 51 52 53 55 55 55 57 59
Wind_Speed
23 24 24 25 26 27 27 27 26 25 24 23 21 20 18 17 15 13 11 10 9 9 8 7 4 3 2 3 4 4 4 3 2 5 7 7 7 10 11 12 16 20 21 22 23 24 24 23 23 25 28 26 22 18 15 14 11 10 10 8 10 14 17 17 17 16 12 8 5 5 5 6 6 6 6 6 6 5 3 4 6 8 8 11 14 14 14 15
22 24 25 26 26 27 28 28 28 28 27 25 24 22 21 19 18 16 14 12 11 10 10 9 6 4 3 2 3 4 4 4 1 1 1 3 6 9 10 10 14 19 21 21 23 24 25 26 27 29 29 25 23 20 16 15 13 12 11 9 10 12 15 16 17 15 14 11 6 4 3 4 6 5 6 6 4 2 1 3 4 6 6 8 11 14 14 15
19 22 24 26 26 27 28 29 29 29 29 28 27 25 24 22 20 19 17 14 12 12 11 10 8 6 5 3 2 3 3 4 3 2 3 6 9 10 10 10 13 18 21 21 23 25 26 28 29 29 26 23 22 19 16 15 12 11 9 6 7 9 11 16 19 15 13 10 6 4 4 5 5 4 5 4 2 2 0 2 4 4 5 6 8 11 13 14
16 18 21 24 27 27 28 29 30 30 30 30 29 28 27 25 23 21 20 17 15 14 13 12 10 8 7 5 3 2 3 3 2 1 3 5 7 9 11 11 12 16 20 22 24 26 27 28 28 27 22 19 18 17 16 15 12 10 7 4 4 7 9 15 18 12 8 6 5 5 5 6 5 5 4 4 1 3 3 1 2 3 4 4 6 8 10 13
15 16 17 20 24 27 28 29 30 30 31 31 31 30 29 28 27 25 23 20 18 16 15 13 12 10 8 7 5 3 3 2 1 2 2 3 6 9 10 11 11 15 20 23 26 27 27 27 26 24 19 15 14 16 16 14 12 9 7 6 4 7 10 14 14 8 4 3 5 6 6 5 5 5 5 5 2 3 4 4 1 2 3 3 4 6 8 11
17 16 16 17 19 23 27 29 30 30 31 32 33 32 32 31 29 28 26 24 21 19 17 15 13 12 10 9 7 6 6 4 2 3 2 3 5 9 10 9 10 14 20 24 28 28 25 24 25 21 16 13 12 15 15 14 11 7 9 9 9 10 13 15 13 9 3 3 6 8 8 6 5 5 6 6 3 4 4 4 1 2 3 2 2 5 7 9
18 17 17 17 17 18 22 26 29 31 31 32 33 34 34 33 32 31 29 27 24 22 20 18 15 13 12 11 10 9 7 5 3 2 2 3 4 8 9 9 10 14 20 26 28 26 23 24 24 20 16 14 14 14 14 13 5 8 12 10 11 14 17 18 15 9 1 3 6 7 8 7 7 7 6 4 2 4 3 3 3 3 3 2 2 3 5 6
19 19 19 18 18 18 18 21 25 29 31 32 33 34 35 35 34 34 32 30 28 25 23 20 18 15 14 12 12 12 9 7 7 3 2 3 4 7 9 10 11 15 21 28 29 25 24 25 24 20 17 16 17 17 15 14 8 8 12 12 13 17 20 19 12 4 1 2 4 5 7 7 8 8 6 4 1 3 4 4 4 4 3 3 3 4 4 4
20 20 20 20 20 19 19 19 20 24 29 32 33 33 35 36 36 36 35 33 31 29 26 23 21 18 16 14 15 14 12 11 9 5 3 3 4 7 10 11 14 17 22 29 30 25 23 24 23 20 18 18 21 19 16 12 10 11 13 15 16 17 17 12 2 3 2 2 4 5 5 5 7 7 6 5 2 2 4 4 5 4 4 3 4 4 4 3
21 21 21 21 21 21 21 20 20 20 23 28 33 34 34 36 37 37 37 36 34 33 30 27 24 21 18 16 17 16 15 14 10 7 6 4 5 7 10 13 16 19 24 29 28 24 23 24 23 21 20 21 22 20 16 12 10 11 12 15 18 20 18 12 2 4 2 5 4 5 4 4 6 7 6 6 5 4 5 5 5 4 4 4 4 4 4 3
22 22 21 21 22 22 22 22 22 21 20 23 28 33 35 36 37 38 38 37 37 36 33 31 27 24 21 19 19 19 17 15 11 10 8 6 7 8 11 14 17 19 24 27 26 25 26 26 25 23 22 20 22 21 15 9 10 12 14 16 19 22 21 13 1 4 4 6 5 5 5 4 5 6 6 7 6 6 7 7 7 5 4 5 5 4 4 3
24 23 23 23 22 22 23 23 23 23 22 21 23 27 33 36 37 38 39 39 39 38 37 34 31 27 24 22 21 20 19 16 14 13 10 9 8 7 10 14 18 21 24 26 26 27 27 28 28 25 22 18 21 23 16 10 13 16 18 19 20 24 22 12 1 5 6 7 7 6 5 2 3 4 4 5 6 7 6 8 8 6 5 4 4 3 3 2
23 24 24 24 24 24 23 24 25 25 24 23 23 23 27 34 38 38 39 40 40 40 39 37 34 31 28 26 23 22 22 19 17 15 12 11 9 7 9 12 18 23 25 27 28 28 28 28 29 28 24 20 23 25 20 15 12 16 19 19 21 24 19 10 2 6 6 6 5 4 4 3 3 3 3 3 4 5 5 5 6 5 4 3 2 3 2 1
21 22 24 25 25 25 25 25 25 26 26 25 25 24 24 28 35 39 39 40 40 41 40 39 37 34 31 29 25 24 24 21 20 18 14 12 11 10 9 11 16 22 25 28 28 27 27 27 30 29 27 22 21 24 23 18 14 17 16 14 15 15 13 10 4 5 4 4 5 2 2 3 4 5 6 5 3 4 4 3 3 3 2 1 1 1 1 1
20 21 22 23 25 26 27 26 26 27 27 27 27 26 25 25 29 36 40 40 40 41 41 40 40 37 34 32 29 27 26 24 23 20 17 15 14 13 11 12 16 21 24 27 26 26 26 26 27 28 28 24 17 20 23 19 17 20 19 14 11 10 11 11 5 2 2 5 7 4 2 2 3 6 8 8 5 5 4 2 1 1 0 1 1 1 1 1
22 22 22 23 24 26 27 28 28 28 28 28 28 28 27 26 26 30 36 40 40 40 40 40 40 39 37 35 33 30 30 29 26 23 21 18 16 17 16 15 18 21 23 25 25 26 27 25 25 28 29 24 17 20 25 22 21 22 20 17 15 12 13 10 3 1 1 5 6 4 3 3 3 5 7 8 7 6 4 2 1 1 1 0 0 0 1 1
24 23 23 24 24 25 26 27 28 30 30 30 29 29 29 28 27 27 30 37 41 41 40 39 40 40 39 38 36 34 33 32 29 25 24 22 20 21 19 17 19 20 23 26 26 27 27 24 26 29 28 24 21 22 24 25 24 23 20 19 18 12 8 6 4 4 4 3 4 4 4 3 3 4 5 7 6 4 3 2 1 1 1 1 1 1 2 1
25 25 24 25 25 25 26 26 27 29 31 33 31 30 30 30 29 27 27 32 39 42 40 40 41 40 40 41 39 37 36 35 31 27 26 25 23 23 20 18 20 22 24 26 27 27 25 24 28 30 28 26 24 21 22 25 23 20 18 18 15 4 5 5 5 8 10 8 2 3 7 7 7 6 4 5 5 3 3 2 3 3 2 1 1 1 2 1
27 27 26 26 26 26 27 26 27 28 30 35 35 32 31 31 30 29 27 26 33 41 42 41 41 41 42 43 42 40 39 37 33 30 29 28 26 24 23 22 22 24 24 24 25 25 24 25 28 27 25 25 22 19 20 22 18 13 11 12 8 4 9 8 8 10 13 12 6 3 6 10 11 10 6 4 5 4 3 4 5 4 2 2 2 1 2 2
28 28 27 27 27 27 27 28 27 27 29 33 36 36 34 31 30 30 28 24 26 35 42 42 40 41 42 42 43 42 41 40 36 33 33 32 29 27 26 25 24 24 23 21 23 24 24 26 27 24 21 20 19 18 20 20 17 12 8 7 3 5 9 10 10 11 14 13 10 8 9 10 11 11 10 7 6 6 4 4 5 6 3 2 2 2 2 1
29 29 28 28 28 27 28 28 28 27 29 32 35 36 36 33 31 31 29 24 24 31 39 42 40 40 42 43 43 44 43 42 39 37 37 35 32 31 28 27 26 24 21 21 24 26 26 26 24 21 17 17 18 20 22 21 21 18 11 5 2 3 7 11 12 14 16 13 11 13 14 13 9 11 14 11 9 9 8 6 5 6 6 2 1 3 4 4
32 30 29 29 28 28 28 29 28 28 29 32 34 35 35 35 34 33 30 26 25 30 36 41 41 38 41 43 43 45 45 44 42 40 40 38 35 33 31 30 27 23 23 24 26 28 26 24 22 20 17 19 22 23 26 26 24 22 16 12 9 5 8 13 13 16 18 16 15 18 18 15 12 15 18 14 12 10 10 9 7 6 6 5 4 4 6 6
33 32 31 30 29 29 29 29 29 28 30 32 34 34 33 35 36 36 33 26 23 29 32 38 43 41 42 44 44 45 46 45 44 43 42 41 37 35 34 32 28 26 26 27 26 25 22 21 23 23 21 23 25 27 30 28 24 24 22 19 14 10 12 12 15 19 21 20 18 20 22 19 18 22 22 17 15 13 11 10 9 9 7 6 6 7 8 8
35 34 33 31 30 29 29 29 29 29 30 32 34 33 33 35 37 36 35 27 20 26 30 33 41 42 40 42 44 46 47 47 46 45 45 43 39 38 36 33 30 29 28 26 25 24 20 21 26 26 25 26 27 29 32 29 26 25 23 21 18 18 15 10 15 21 21 21 21 21 23 21 22 24 23 21 20 17 15 12 10 11 10 7 6 8 9 10
35 35 34 32 31 30 30 30 30 29 30 33 33 32 33 35 37 35 35 31 20 22 30 30 34 38 39 42 44 46 47 49 48 46 46 45 42 41 38 35 33 31 29 27 26 25 22 25 29 29 27 28 30 31 31 30 27 23 20 21 23 23 17 13 20 26 26 26 25 25 24 23 23 23 22 23 23 20 18 15 13 11 11 10 9 8 9 11
36 36 35 34 32 31 31 30 31 29 30 32 32 32 35 36 36 34 33 34 23 20 29 29 27 34 41 41 41 44 48 49 49 48 47 47 45 42 40 38 36 33 31 29 29 27 26 29 30 29 29 30 32 34 32 30 27 22 20 22 25 22 17 18 23 29 31 27 24 24 23 23 23 23 22 24 25 22 17 14 14 12 10 11 12 11 10 11
37 36 36 36 34 32 31 31 31 30 29 32 31 32 35 36 36 34 32 33 25 20 26 26 23 31 38 37 36 42 46 45 48 50 49 48 47 45 43 40 38 36 33 33 33 30 28 30 30 30 30 31 33 33 32 31 28 23 22 24 25 20 16 17 20 25 27 23 22 24 22 23 25 24 23 24 25 21 13 11 13 12 10 11 13 15 13 13
37 37 37 36 36 33 31 32 32 30 29 30 32 33 34 36 35 33 33 30 24 21 22 22 22 28 34 37 37 40 41 42 47 49 48 48 49 48 46 43 40 37 36 36 34 29 28 30 31 31 31 32 31 29 31 32 27 24 25 27 27 22 20 20 21 21 22 22 25 27 24 25 28 24 22 24 23 16 10 12 14 14 16 14 12 14 13 14
37 37 37 36 37 35 32 33 32 31 30 30 32 34 33 35 34 34 33 26 21 21 20 19 21 25 31 37 38 38 40 43 46 47 47 49 50 50 48 45 42 40 38 37 33 30 31 30 29 31 32 31 26 27 33 33 26 27 30 31 30 27 24 23 24 22 22 26 29 27 24 27 29 24 22 23 19 13 12 14 15 17 20 18 15 13 12 12
37 37 37 36 37 36 33 33 32 31 32 31 32 33 33 33 33 34 32 23 19 21 20 18 19 22 28 34 35 35 39 44 45 47 48 49 51 51 49 46 44 43 41 39 35 33 34 32 30 33 34 29 23 27 34 32 28 31 32 29 30 31 26 23 25 26 27 32 31 27 25 28 29 25 23 21 16 14 15 17 17 19 21 21 19 14 12 12
38 38 37 36 36 36 35 35 32 31 33 33 31 32 33 33 33 35 29 20 19 19 15 14 19 24 26 28 29 30 34 40 44 47 48 48 51 52 51 50 48 46 45 43 40 38 38 37 35 35 33 29 27 29 30 29 31 37 34 29 29 32 30 28 30 31 34 36 31 27 28 31 30 26 22 19 17 15 15 16 16 19 23 23 20 14 12 13
38 38 37 37 36 35 37 36 32 31 33 33 32 32 32 33 35 33 24 19 19 13 10 12 15 20 22 22 25 25 28 34 39 44 46 47 50 53 53 52 50 49 48 47 44 42 41 40 38 35 32 32 34 34 31 30 33 37 37 33 32 33 35 36 35 35 37 37 31 25 25 29 29 26 23 22 22 19 16 16 16 19 24 25 22 17 15 12
38 38 37 37 35 35 37 37 34 32 33 34 33 32 32 34 35 28 21 20 16 12 16 17 14 11 15 17 19 19 23 30 34 39 43 44 47 52 52 52 51 49 48 47 46 43 41 40 40 37 34 35 36 35 35 34 34 38 40 38 37 38 41 41 39 36 36 34 30 24 25 30 32 29 26 24 22 21 18 15 15 20 24 24 23 21 18 14
39 38 38 37 35 35 37 37 35 33 33 34 34 33 34 35 31 23 21 19 13 19 21 21 22 15 13 12 12 15 21 26 30 35 40 42 45 50 53 53 52 50 48 48 47 44 43 43 42 40 38 36 35 34 32 32 33 39 41 39 39 40 42 42 40 38 36 33 30 28 31 36 36 33 28 18 14 16 18 17 18 21 23 23 21 20 18 15
39 38 38 37 36 36 37 37 36 34 34 34 35 35 35 33 26 21 19 14 18 27 24 23 26 24 18 13 10 11 15 21 25 29 36 41 43 47 50 52 52 51 50 50 48 45 44 44 41 40 38 35 34 33 30 30 32 36 39 40 39 38 39 37 37 38 38 38 37 34 33 35 37 37 29 18 15 16 18 19 19 20 21 21 20 19 16 14
39 39 38 36 37 38 37 36 35 35 35 35 36 35 32 28 23 20 17 16 26 31 27 27 29 28 24 19 13 8 9 15 20 24 31 38 40 42 45 49 51 52 51 51 49 46 45 43 40 39 38 34 33 32 31 34 35 35 40 43 39 35 36 36 35 39 42 44 41 35 29 29 31 31 23 15 14 16 18 19 18 19 20 20 21 20 18 15
39 39 38 37 38 38 36 34 34 36 36 36 36 33 29 25 22 18 17 24 32 32 31 31 29 29 27 21 15 8 8 12 18 24 28 33 38 40 41 45 48 51 51 49 47 46 44 42 40 39 37 33 29 30 32 33 34 35 38 40 38 34 34 36 35 37 42 43 38 31 24 23 25 24 18 14 15 17 19 19 19 20 20 19 21 21 20 19
39 38 39 39 38 37 36 35 35 36 37 37 34 31 28 24 19 17 20 31 37 34 34 31 29 31 29 26 22 14 12 12 16 24 27 30 35 37 38 41 45 48 49 47 45 44 43 42 41 39 36 28 25 30 35 33 31 33 31 30 35 39 38 39 38 35 36 35 32 28 23 20 21 21 18 17 18 19 20 20 19 18 19 20 22 22 22 22
38 38 39 40 38 37 38 36 35 36 37 36 32 30 28 22 18 19 25 38 41 38 36 32 28 28 28 31 30 24 20 14 13 20 28 31 33 34 34 36 39 43 46 46 45 44 43 42 40 37 33 28 26 32 39 38 33 32 30 26 30 38 39 37 36 34 33 32 30 29 26 23 22 22 20 18 18 19 18 18 17 17 20 22 23 23 23 21
38 38 39 40 39 38 39 37 36 37 36 35 32 31 29 23 20 22 28 42 44 40 38 32 26 24 26 30 33 32 29 22 17 19 25 31 32 30 30 31 33 36 39 43 44 43 43 43 39 35 33 33 34 36 36 36 34 35 36 32 29 33 35 32 33 33 33 33 32 31 28 27 26 26 24 21 20 19 18 18 19 21 22 23 24 23 23 22
39 39 39 40 40 39 38 37 36 36 36 35 34 33 30 26 23 23 30 44 47 43 40 34 29 28 29 31 33 33 29 25 25 23 23 29 33 31 30 28 27 27 32 39 44 44 45 45 40 36 34 35 36 34 26 24 30 36 38 35 32 31 31 31 33 34 35 37 35 32 30 29 29 29 26 25 24 22 21 22 23 23 22 23 24 21 20 22
38 39 40 40 39 39 38 37 37 37 36 34 34 34 33 29 25 25 32 44 49 46 42 36 34 33 31 31 31 29 22 20 27 28 24 26 29 28 28 26 22 21 26 34 40 43 44 43 41 38 36 34 32 28 20 18 26 35 37 36 34 32 32 33 33 32 34 39 40 37 35 33 32 31 29 27 26 23 23 24 23 22 22 22 21 20 20 22
38 38 41 40 39 39 39 39 38 37 35 33 34 36 35 31 28 27 32 42 48 49 45 38 35 35 34 31 30 26 17 16 26 32 29 27 25 18 16 18 17 18 23 27 33 39 42 42 41 39 37 34 29 24 20 20 27 35 38 38 36 34 34 36 33 29 30 36 40 39 37 35 32 29 29 30 28 24 23 24 22 23 23 20 19 21 23 23
37 37 41 42 41 41 42 40 38 37 35 35 36 37 36 34 31 29 33 42 47 50 50 41 36 38 36 30 30 26 16 15 26 32 31 29 26 17 11 12 13 16 21 25 29 36 43 44 42 41 39 35 31 28 26 26 32 39 41 39 36 35 37 39 37 32 30 34 39 39 36 33 29 23 24 29 30 26 24 24 23 24 24 21 21 23 23 23
38 36 41 44 43 43 42 39 38 37 36 37 38 39 39 37 33 31 35 42 46 50 51 44 39 40 34 28 32 31 21 19 26 33 30 27 28 25 18 14 14 15 17 19 23 31 41 46 43 43 44 40 36 35 33 31 33 37 40 39 37 36 38 41 40 35 31 31 37 39 34 28 25 22 20 22 24 23 23 24 23 24 25 25 26 25 22 22
39 37 40 44 44 42 40 37 37 38 38 39 39 39 40 38 34 33 36 41 46 50 52 47 43 39 34 32 35 31 24 23 26 35 35 28 29 29 25 25 24 19 15 14 18 27 38 46 44 43 45 43 36 32 29 29 31 34 35 35 36 38 39 40 41 37 31 29 33 36 31 26 25 24 21 20 19 19 21 22 23 25 27 29 30 28 24 24
41 39 40 42 43 42 39 37 37 38 38 39 39 38 39 37 35 35 36 41 46 49 51 50 48 41 36 39 39 31 27 27 27 35 39 32 31 30 27 34 36 28 22 18 17 24 38 46 45 43 43 40 33 28 25 25 27 29 29 28 29 33 37 40 40 37 32 30 33 36 33 27 25 24 22 21 20 19 21 22 23 26 29 32 33 32 30 28
41 40 39 39 41 42 41 38 38 39 38 39 38 37 38 37 37 37 37 41 45 48 52 54 51 44 39 41 42 34 30 29 30 37 40 37 37 34 27 32 42 40 34 26 20 22 35 46 46 43 40 37 32 31 29 26 25 24 24 25 24 27 34 40 38 35 33 32 31 33 32 24 21 23 23 21 20 21 22 22 24 28 32 35 35 35 34 33
41 40 39 39 40 42 42 38 37 39 38 38 38 36 36 38 39 39 40 42 45 49 54 57 51 45 43 43 43 40 35 32 32 38 41 39 40 39 29 29 40 43 40 35 26 23 30 42 47 43 37 34 33 33 33 30 29 27 23 22 23 25 30 35 34 32 32 32 28 28 30 27 25 25 25 23 21 22 24 25 27 32 35 36 35 35 36 36
42 40 39 40 40 42 43 40 38 38 37 37 38 37 37 38 39 41 42 44 46 48 53 56 51 47 47 46 45 45 41 35 33 39 43 40 39 39 33 31 39 42 39 38 33 26 27 36 45 45 39 34 33 34 35 33 31 31 27 25 26 27 28 29 30 29 29 29 25 26 31 33 31 29 28 26 24 24 26 28 30 34 37 37 35 35 37 38
42 40 39 40 40 41 43 42 40 39 38 37 38 39 38 37 38 43 45 45 47 48 50 55 53 49 49 47 47 49 46 39 36 40 44 40 37 39 35 32 38 43 42 41 39 34 31 33 40 46 43 38 35 35 37 37 34 31 29 29 30 31 33 32 29 28 28 26 24 27 31 31 30 32 31 30 29 29 29 30 32 35 37 37 37 38 38 39
41 40 39 40 40 41 42 42 41 40 40 39 40 40 38 37 39 44 46 47 48 49 50 55 55 53 52 48 47 49 46 44 42 42 45 42 38 40 38 31 36 43 42 43 44 42 40 36 38 44 45 41 39 37 36 38 37 31 28 32 35 35 35 36 34 34 35 33 31 32 32 31 32 35 35 35 35 34 34 34 35 36 37 37 39 40 39 39
Wind_Direction
260 257 255 254 253 252 251 251 250 249 249 248 247 246 249 252 255 257 260 265 267 265 263 264 262 271 322 0 9 6 0 10 162 188 198 206 209 189 180 175 160 157 154 149 151 148 143 138 132 123 113 107 99 90 82 73 65 54 33 32 43 15 2 2 0 355 343 333 348 21 30 33 39 39 33 37 57 69 86 111 105 108 122 123 123 120 116 118
265 261 258 255 254 253 251 251 250 250 249 249 249 247 246 248 251 253 254 256 261 263 262 261 258 256 272 313 355 357 353 355 354 205 182 181 198 196 189 179 164 163 161 155 152 146 141 139 136 128 119 115 108 98 81 64 49 36 14 4 23 1 346 344 338 331 330 331 335 8 29 33 35 28 26 30 40 64 109 122 107 104 109 112 116 115 114 114
274 267 261 258 255 253 252 251 250 250 249 248 248 248 247 246 247 249 251 251 253 257 260 259 256 251 254 267 318 347 347 354 19 78 149 183 197 203 195 182 170 166 166 163 155 147 144 143 141 133 125 122 116 105 86 68 46 24 352 345 19 347 333 339 334 324 322 318 313 7 37 33 29 11 34 53 0 336 352 119 110 94 85 87 97 104 108 109
290 278 268 262 258 255 252 251 250 249 249 248 247 247 248 247 246 246 248 248 247 250 255 256 254 249 247 254 267 307 325 340 13 116 195 203 199 203 196 187 176 166 168 168 160 153 149 148 145 139 134 130 123 111 92 78 58 30 354 345 16 333 328 337 338 333 325 312 316 10 35 30 22 351 31 71 358 342 327 338 79 71 67 73 85 94 99 102
298 293 282 271 263 258 254 252 250 249 249 248 247 246 246 247 246 245 245 245 245 246 249 252 253 249 243 246 251 261 276 275 318 328 269 217 199 203 203 192 176 165 168 168 164 159 155 154 148 145 147 142 127 113 93 71 59 41 350 322 318 319 311 315 329 338 338 337 339 4 19 20 18 349 27 59 13 329 310 302 339 66 69 63 73 88 95 100
297 296 293 286 274 264 258 254 251 249 248 248 248 247 245 245 246 246 244 243 244 243 245 247 249 249 242 240 243 245 256 260 291 333 301 237 202 202 208 198 175 162 167 168 166 162 161 161 151 150 163 152 124 109 94 70 52 6 328 315 310 309 294 292 305 313 324 8 350 356 7 14 18 3 28 48 349 302 299 291 324 56 65 62 54 73 90 98
292 292 292 291 286 277 266 258 254 251 249 247 246 247 246 245 244 245 245 243 242 242 243 242 244 246 241 235 236 242 252 254 247 277 292 251 210 201 204 198 174 161 167 169 167 164 164 166 154 157 178 162 126 107 101 98 79 320 317 308 294 291 288 292 298 299 303 26 351 347 358 9 19 17 32 44 318 299 321 332 13 38 37 38 23 40 77 94
289 288 288 288 288 286 279 268 259 254 251 248 246 245 246 245 244 244 245 244 242 240 241 241 240 241 241 233 232 241 243 239 233 227 265 247 217 199 194 194 176 165 168 170 171 169 169 169 159 163 183 167 136 122 121 125 152 252 282 282 279 280 285 292 292 285 141 32 359 342 346 359 13 22 37 57 304 307 345 4 25 35 18 12 0 8 52 85
291 288 286 285 285 284 284 280 271 261 254 251 248 245 244 244 244 244 243 244 243 241 239 239 238 237 238 233 230 236 237 240 238 228 235 226 216 200 188 186 179 173 171 174 179 177 174 172 164 167 175 159 140 133 133 137 172 220 258 275 281 283 290 303 285 159 159 72 21 345 349 2 11 23 36 56 62 359 2 13 29 31 11 10 0 356 24 73
293 292 288 285 283 282 282 281 279 273 263 255 250 247 245 243 243 243 243 242 243 242 239 237 237 235 235 232 230 231 235 242 240 236 240 219 208 202 189 182 183 181 176 181 185 178 171 164 160 166 165 154 144 136 129 139 186 222 247 263 274 278 289 314 36 145 130 80 35 359 32 40 31 34 44 57 57 37 25 17 19 21 19 23 13 0 10 38
290 291 291 289 285 282 281 280 279 278 274 265 256 250 247 244 242 241 242 242 242 242 241 238 235 234 232 231 231 230 236 242 235 233 236 228 213 198 193 184 184 186 182 186 187 178 170 159 159 164 160 158 150 138 131 155 219 236 238 249 264 272 281 295 300 133 94 70 50 42 59 48 44 47 59 66 54 40 32 22 14 8 19 29 21 10 14 22
288 288 289 290 289 286 283 281 279 277 276 273 266 256 249 246 243 241 239 240 241 240 240 239 235 233 230 229 231 231 233 235 232 231 226 229 231 206 197 187 183 187 188 189 187 182 175 165 168 171 174 174 149 138 144 182 229 241 242 250 258 266 273 273 206 104 77 57 47 53 56 12 20 49 67 72 61 55 45 28 14 4 18 40 40 21 20 28
288 288 288 288 288 288 287 285 281 278 275 274 272 266 256 249 245 242 239 238 239 239 239 239 236 233 230 228 228 228 229 227 227 229 224 223 234 224 206 195 185 186 190 190 189 187 182 175 176 182 194 185 149 144 157 175 209 233 243 250 250 257 263 253 184 103 89 58 47 61 71 37 19 46 48 38 56 63 58 37 14 5 19 39 53 34 30 71
289 290 290 290 288 288 288 288 286 282 277 274 272 270 265 256 247 243 240 237 236 237 238 238 237 233 229 228 225 225 229 228 224 224 224 219 223 227 214 203 193 189 191 192 194 193 189 184 181 189 201 193 164 156 163 179 210 226 232 241 240 246 251 241 209 126 120 101 108 113 92 56 23 31 28 25 50 57 56 55 25 8 4 350 122 39 5 104
292 292 291 291 291 290 288 287 287 286 281 277 273 270 268 264 254 246 242 239 236 235 235 236 236 233 230 228 223 222 225 226 222 220 221 216 213 221 217 205 198 195 194 195 199 196 195 193 188 194 203 205 192 164 164 184 211 218 215 223 235 238 234 233 222 161 147 124 137 160 135 81 19 17 19 26 45 55 57 83 99 82 332 219 172 201 248 195
294 294 293 293 292 291 290 289 288 287 285 281 276 271 267 265 262 253 244 240 238 235 233 232 234 233 230 227 222 220 221 222 220 219 220 214 206 212 214 204 198 200 198 199 202 199 200 200 194 197 202 212 205 172 170 182 199 212 212 224 241 233 224 229 246 266 139 113 128 135 117 105 61 28 5 5 23 46 59 78 109 122 154 198 94 237 288 267
294 295 296 295 294 291 290 289 289 287 286 283 279 275 269 264 263 261 250 241 238 237 234 230 230 230 229 227 223 219 221 223 221 220 220 214 206 209 214 208 200 202 201 201 204 203 204 201 196 198 204 214 208 190 186 183 193 208 209 222 233 228 234 260 306 335 352 34 93 72 41 53 54 28 353 339 353 17 40 64 52 40 88 22 24 22 0 345
292 294 296 297 297 296 292 289 287 287 286 283 279 276 272 266 261 261 258 246 238 236 235 231 227 226 226 226 223 218 220 223 220 218 219 216 211 210 215 212 203 202 203 203 204 206 208 202 199 202 207 214 215 216 206 186 190 204 203 211 216 222 352 344 355 356 341 325 334 32 16 10 348 334 336 325 326 340 350 5 7 2 15 12 1 42 52 50
288 291 294 296 298 298 297 293 288 285 284 282 279 277 273 268 264 260 260 257 246 237 234 232 228 224 224 225 224 219 219 222 219 216 216 216 214 211 213 213 207 205 205 205 204 207 209 205 205 207 209 215 220 230 217 188 180 188 189 196 194 23 12 9 2 348 330 317 312 335 358 5 352 327 308 303 309 316 331 339 337 328 343 357 327 349 84 83
285 287 290 293 296 298 299 297 293 286 281 279 278 277 274 269 267 263 259 263 258 243 235 233 229 226 224 223 223 220 218 221 220 215 214 214 213 211 213 214 212 210 209 206 204 206 208 208 210 211 212 216 218 223 212 182 155 147 146 150 153 4 0 356 343 332 325 317 314 325 328 345 1 346 320 307 308 306 302 312 314 305 305 356 343 300 262 257
282 284 286 289 293 296 299 299 298 291 282 277 275 275 275 273 271 264 258 260 262 249 237 232 230 227 225 220 219 219 217 219 219 215 214 215 214 212 213 216 217 215 212 206 204 205 208 211 213 211 208 209 210 212 201 173 146 144 144 148 214 311 339 335 324 320 321 315 318 325 320 322 345 354 338 322 309 302 296 291 287 291 289 278 258 264 266 270
280 281 283 286 289 292 296 298 299 295 286 279 273 272 273 275 273 265 255 253 259 253 239 232 228 226 227 222 217 217 216 217 218 216 216 217 217 214 213 217 218 217 213 208 206 206 208 210 210 208 200 197 203 203 192 174 158 157 171 206 228 249 291 304 309 314 312 306 310 310 309 314 321 338 340 322 303 296 295 296 282 269 273 276 271 248 245 259
279 280 281 283 285 288 292 295 297 294 289 281 274 272 272 272 271 266 258 251 258 261 248 235 229 225 226 224 217 215 214 215 217 217 217 219 218 216 215 217 217 215 215 212 210 211 210 206 205 205 196 195 202 200 194 188 178 173 183 202 210 226 252 274 294 305 305 297 295 296 300 308 317 328 330 314 301 293 285 290 291 276 262 265 284 271 247 245
278 278 279 280 282 285 287 291 293 292 289 284 277 274 273 269 266 266 265 259 259 267 259 241 231 226 226 226 220 216 213 212 215 217 218 219 218 217 215 216 215 215 216 215 212 214 210 201 203 204 195 195 202 200 201 204 199 190 186 190 200 220 235 252 276 284 286 278 276 285 295 304 315 322 319 306 300 293 278 273 284 286 275 267 277 277 261 246
277 277 278 279 279 282 284 286 288 288 287 285 281 277 272 268 264 263 267 265 260 265 261 248 234 228 226 225 222 218 213 211 211 215 219 218 216 217 215 213 215 215 216 214 212 212 207 202 205 206 197 196 200 203 209 212 207 197 182 183 200 218 232 244 257 262 262 265 273 282 292 301 309 314 310 301 299 294 284 280 280 279 277 279 276 269 258 250
276 277 277 277 277 279 280 282 284 285 285 283 283 279 272 268 265 263 265 265 262 261 261 255 237 227 227 226 224 221 216 211 210 212 216 216 215 215 214 214 215 215 213 213 213 211 207 205 208 208 202 198 201 206 212 213 205 192 175 183 201 213 229 242 245 247 250 262 278 282 286 291 296 301 299 296 298 295 290 292 290 281 277 280 280 273 259 252
275 276 276 276 276 277 278 279 281 283 282 280 281 279 274 270 267 265 264 265 267 263 261 260 244 229 228 227 224 224 219 214 212 212 213 214 214 213 213 213 215 214 211 212 214 211 208 208 210 211 206 201 202 205 208 208 204 190 175 184 199 211 233 243 238 240 247 259 271 272 274 277 283 291 290 292 297 292 291 309 309 306 307 298 292 292 282 270
275 275 275 276 275 275 276 275 279 281 277 277 278 277 276 272 269 268 265 266 271 266 259 258 245 230 227 225 222 221 218 214 215 215 213 213 214 213 213 213 213 213 213 215 216 211 210 212 211 212 212 207 204 202 201 204 200 180 175 191 201 212 233 237 234 244 253 256 262 267 270 272 277 284 282 286 296 298 310 319 317 323 322 312 305 301 294 283
273 274 274 275 275 275 275 273 276 278 275 273 274 275 276 273 271 269 265 266 271 264 256 252 241 227 225 226 221 218 215 212 213 215 213 213 214 213 213 212 211 211 212 217 216 209 212 214 211 212 217 215 208 198 198 203 195 174 179 196 201 209 230 238 233 241 253 256 261 265 266 267 272 274 272 278 295 322 328 311 311 322 320 316 314 301 290 282
272 272 273 274 275 275 274 272 272 273 272 270 270 273 274 272 270 267 265 268 266 260 255 246 232 219 223 228 223 218 217 212 211 213 211 212 213 213 212 210 210 211 211 214 214 209 211 214 212 213 216 216 208 200 201 202 189 179 188 200 199 205 223 237 234 235 244 252 258 259 258 262 263 262 263 277 301 323 315 300 306 316 311 314 316 300 284 278
270 271 272 273 274 275 273 272 270 269 269 267 267 270 271 271 267 263 266 270 263 257 250 236 224 216 219 227 225 220 220 216 213 213 212 211 212 212 210 209 208 209 210 211 211 208 209 210 210 212 214 210 202 201 208 208 193 188 195 200 198 202 211 220 227 232 238 244 252 256 255 255 257 258 263 286 305 306 300 298 304 307 301 307 314 302 289 281
269 270 271 272 273 273 272 271 270 266 264 265 265 266 267 268 265 263 267 270 262 246 215 204 214 221 220 225 227 221 221 222 218 216 214 213 214 213 211 211 209 209 211 211 209 207 209 211 209 207 210 211 206 200 204 211 203 193 191 191 193 200 206 212 220 229 234 239 244 249 250 253 260 265 270 285 294 289 290 297 294 289 291 302 310 305 299 292
269 269 269 270 271 271 271 271 269 264 261 262 262 262 264 264 265 266 264 264 254 210 188 178 171 210 229 226 229 222 219 223 222 219 217 215 216 216 213 212 212 211 213 214 213 209 209 212 211 205 204 211 215 209 201 203 200 188 184 185 190 197 204 210 219 227 232 238 240 238 245 256 263 270 275 284 287 279 274 277 271 272 286 301 308 307 306 302
268 268 268 269 270 269 269 269 268 263 258 259 259 260 261 263 267 266 260 261 230 187 186 180 166 178 211 215 222 224 221 225 224 222 220 216 216 218 214 213 213 212 212 214 215 213 210 211 213 210 206 206 214 215 205 201 198 189 186 189 193 199 205 211 220 227 231 237 236 234 244 257 261 263 268 274 272 264 262 262 261 270 289 302 307 312 313 307
268 267 267 268 268 268 267 266 266 261 257 255 256 258 259 264 268 262 256 246 199 184 184 187 182 181 187 194 208 218 220 227 228 227 226 220 216 219 218 215 214 212 212 213 215 215 215 214 213 215 214 208 208 209 198 199 207 199 192 196 200 204 207 210 217 224 229 233 230 230 244 258 259 254 253 251 247 252 259 261 265 278 291 296 301 309 309 309
267 266 267 266 266 266 265 265 265 261 256 253 254 257 260 265 263 256 247 210 188 185 186 190 191 184 181 189 204 217 229 234 232 230 231 226 217 217 220 219 217 215 214 215 215 214 216 216 212 212 217 216 211 206 196 197 209 209 201 201 203 205 207 210 217 221 223 226 228 228 240 250 249 247 250 253 251 251 254 258 268 280 287 290 296 301 299 303
266 266 266 263 263 265 265 264 262 258 254 251 254 257 259 260 255 249 233 198 187 188 189 191 194 187 180 184 199 228 263 248 236 229 229 230 222 214 217 219 219 218 216 217 217 215 216 217 212 210 216 221 217 208 204 204 210 215 212 207 204 204 207 212 218 222 221 224 229 231 238 245 245 248 258 268 266 260 261 265 271 278 285 290 295 297 297 300
265 265 264 262 262 262 262 261 257 255 252 250 254 255 254 255 250 241 215 193 190 194 191 189 195 193 182 179 190 219 253 254 246 234 228 231 227 215 212 216 218 218 217 217 217 217 216 214 213 212 212 218 218 207 207 212 215 216 219 217 211 208 212 216 218 220 221 226 232 234 239 246 244 247 256 264 265 263 266 267 267 276 286 288 290 294 298 305
264 263 262 261 260 259 259 258 256 254 252 252 254 251 251 250 241 234 209 192 195 199 191 186 190 192 184 179 185 203 227 247 265 247 233 232 230 220 213 213 215 218 218 216 216 217 216 213 211 213 209 207 215 211 207 211 214 210 210 214 215 215 220 226 226 224 225 228 233 236 240 239 234 239 249 256 257 256 258 257 260 274 280 281 288 298 304 312
262 261 260 260 258 256 258 258 256 254 252 252 251 246 247 242 232 230 209 197 200 199 192 189 187 182 179 180 185 195 210 229 252 256 244 236 233 227 220 212 211 217 218 217 217 216 217 215 208 207 204 203 213 218 213 214 214 205 200 201 209 219 225 229 232 234 235 234 234 238 240 236 232 234 241 248 253 254 255 256 263 272 276 283 295 304 312 320
261 259 258 258 257 256 257 257 256 255 251 249 247 244 243 238 229 226 210 202 202 199 196 194 185 175 172 179 188 193 200 216 231 244 251 243 236 231 226 216 208 213 216 216 216 215 217 218 208 201 203 205 215 224 221 222 220 209 204 205 209 218 226 229 232 236 237 237 237 239 240 237 235 235 238 245 250 251 254 258 264 270 279 292 300 308 318 322
259 258 256 255 255 254 254 254 253 251 249 247 245 242 240 235 227 220 213 207 203 203 201 192 183 180 177 177 186 192 193 199 213 226 240 246 244 239 234 227 215 215 219 217 217 216 218 220 211 204 207 207 211 221 219 217 222 215 211 215 215 217 226 231 235 240 239 235 233 236 238 238 239 241 242 245 246 245 250 256 265 277 287 295 302 312 318 316
258 257 255 253 252 250 249 250 250 248 247 244 242 240 237 234 227 218 215 210 206 206 203 191 187 190 186 182 187 193 198 196 202 213 226 237 245 242 234 232 220 214 220 218 215 213 215 219 213 205 209 210 207 213 211 206 215 214 211 216 218 220 225 228 232 239 242 238 234 236 241 242 246 251 248 243 240 245 255 264 274 286 290 295 304 307 308 306
255 254 253 250 248 246 245 245 246 245 244 240 238 237 234 231 225 217 215 211 209 210 205 194 193 194 189 191 196 193 200 211 202 205 216 227 232 224 208 215 217 216 219 218 214 210 210 214 211 201 201 205 203 204 203 201 207 211 212 218 224 227 227 225 226 232 237 236 234 235 241 245 250 256 251 243 243 249 263 272 279 287 291 296 300 297 299 305
253 250 251 249 246 245 244 243 243 243 242 238 235 234 232 228 222 216 213 211 210 213 209 198 195 198 194 197 200 192 198 221 209 198 205 217 221 221 217 215 225 233 232 225 219 215 211 210 209 202 198 200 202 203 203 200 203 210 216 222 229 232 229 227 230 235 241 240 234 233 239 246 250 255 253 247 245 251 265 276 281 287 292 295 294 293 302 312
252 248 248 249 247 246 244 243 243 243 242 239 236 233 231 227 222 217 214 210 210 214 213 203 196 202 205 201 200 197 203 220 210 194 196 205 209 213 221 223 226 235 242 237 225 218 213 209 207 205 203 207 212 213 211 207 206 212 218 224 229 231 231 233 234 238 245 247 238 232 236 244 249 254 258 258 259 264 271 277 283 288 290 290 290 296 308 314
252 248 247 248 247 245 242 239 239 239 241 241 239 236 233 228 221 218 214 210 209 213 217 211 202 204 211 205 200 201 207 212 208 195 190 191 195 198 209 220 221 221 227 240 238 221 214 209 204 203 209 215 219 220 222 222 218 217 221 225 229 228 226 227 230 234 242 248 243 236 236 243 250 255 262 268 273 278 278 279 284 287 285 284 289 300 307 306
250 247 244 244 245 244 241 237 236 237 237 239 238 237 235 229 221 216 213 211 209 211 216 217 209 208 215 209 200 203 209 206 207 203 192 184 189 192 197 212 216 214 212 219 233 227 216 210 203 203 211 215 213 215 220 226 230 232 229 227 228 228 224 223 227 234 240 246 249 241 238 249 263 265 268 272 273 277 279 281 282 280 279 284 292 300 302 299
249 246 242 240 240 242 240 235 233 234 234 235 235 234 233 230 223 216 211 210 210 210 214 218 216 214 219 215 203 203 209 205 204 208 198 182 184 192 193 201 211 212 208 207 218 227 220 213 207 204 209 208 203 210 215 218 228 236 232 223 220 223 224 225 231 238 242 248 251 240 237 251 263 265 270 272 270 273 275 275 277 277 280 287 293 295 295 295
248 244 240 237 236 238 239 234 229 229 231 232 232 231 229 227 225 218 212 210 210 209 212 216 217 217 220 218 207 202 206 206 202 207 203 185 179 189 191 192 202 209 207 204 210 218 218 216 211 206 206 204 201 207 211 212 220 228 229 225 221 221 225 231 236 239 242 250 251 240 241 252 258 261 264 263 262 266 269 270 274 277 281 285 288 289 291 294
247 243 238 235 233 234 236 234 229 226 226 227 228 228 226 224 224 220 214 211 210 209 210 213 215 218 220 220 212 204 204 207 202 203 204 193 180 184 186 187 196 205 207 204 203 208 212 214 211 208 207 207 205 207 209 210 214 220 225 224 222 225 231 234 237 236 238 247 250 246 247 252 256 258 259 258 259 263 268 270 272 275 279 283 286 288 291 293
245 242 237 234 232 231 232 232 230 225 223 223 225 225 223 221 222 221 216 212 210 209 210 213 215 218 221 223 218 208 204 207 204 199 201 195 184 184 185 186 196 203 207 207 203 204 207 208 207 208 210 212 211 210 211 212 212 213 217 217 216 221 227 229 231 232 234 239 243 245 247 248 248 250 252 256 259 262 268 272 274 276 279 282 285 288 290 290